Weather History for KFFC - October, 2012

Change the Weather History Date:

Thursday, October 25, 2012

  Actual Average Record
Temperature  
Mean Temperature 64 °F 59 °F  
Max Temperature 81 °F 72 °F - ()
Min Temperature 48 °F 45 °F - ()
Degree Days  
Heating Degree Days 2 7  
Month to date heating degree days 106  
Since 1 July heating degree days 119  
Cooling Degree Days 0 1  
Month to date cooling degree days 39  
Year to date cooling degree days 1647  
Growing Degree Days 14 (Base 50)    
Moisture  
Dew Point 54 °F    
Average Humidity 78    
Maximum Humidity 97    
Minimum Humidity 47    
Precipitation  
Precipitation 0.00 in 0.09 in - ()
Month to date precipitation 2.90  
Year to date precipitation 41.47  
Sea Level Pressure  
Sea Level Pressure 30.07 in    
Wind  
Wind Speed 1 mph (East)    
Max Wind Speed 10 mph    
Max Gust Speed -    
Visibility 9 miles    
Events      
T = Trace of Precipitation, MM = Missing Value Source: NWS Daily Summary

Daily Weather History Graph

Daily Weather History Graph

Search for Another Location

Airport or City:

Trip Planner

Search our weather history database for the weather conditions in past years. The results will help you decide how hot, cold, wet, or windy it might be!

Date:

Astronomy

Oct. 25, 2012 Rise Set
Actual Time 7:51 AM EDT 6:52 PM EDT
Civil Twilight 7:25 AM EDT 7:18 PM EDT
Nautical Twilight 6:56 AM EDT 7:47 PM EDT
Astronomical Twilight 6:27 AM EDT 8:16 PM EDT
Moon 4:29 PM EDT (10/25) 3:57 AM EDT (10/25)
Length of Visible Light 11h 52m
Length of Day
11h 01m
Waxing Gibbous, 84% of the Moon is Illuminated
Oct 25
Waxing Gibbous
Oct 29
Full
Nov 6
Last Quarter
Nov 13
New
Nov 20
First Quarter

Hourly Weather History & Observations

Time (EDT) Temp. Dew Point Humidity Pressure Visibility Wind Dir Wind Speed Gust Speed Precip Events Conditions
12:53 AM 52.0 °F 50.0 °F 93% 30.11 in 9.0 mi Calm Calm - N/A   Clear
1:53 AM 51.1 °F 50.0 °F 96% 30.11 in 8.0 mi Calm Calm - N/A   Clear
2:53 AM 50.0 °F 48.9 °F 96% 30.09 in 8.0 mi Calm Calm - N/A   Clear
3:53 AM 50.0 °F 48.0 °F 93% 30.08 in 8.0 mi Calm Calm - N/A   Clear
4:53 AM 48.9 °F 48.0 °F 97% 30.07 in 7.0 mi Calm Calm - N/A   Clear
5:53 AM 48.0 °F 46.0 °F 93% 30.08 in 8.0 mi Calm Calm - N/A   Clear
6:53 AM 48.0 °F 46.0 °F 93% 30.10 in 8.0 mi Calm Calm - N/A   Clear
7:53 AM 48.0 °F 46.0 °F 93% 30.12 in 7.0 mi Calm Calm - N/A   Clear
8:53 AM 52.0 °F 50.0 °F 93% 30.12 in 8.0 mi Calm Calm - N/A   Clear
10:53 AM 70.0 °F 59.0 °F 68% 30.12 in 10.0 mi ESE 4.6 mph - N/A   Clear
11:53 AM 75.0 °F 59.0 °F 57% 30.11 in 10.0 mi ESE 8.1 mph - N/A   Clear
12:53 PM 77.0 °F 59.0 °F 54% 30.09 in 10.0 mi East 10.4 mph - N/A   Clear
1:53 PM 77.0 °F 57.9 °F 52% 30.06 in 10.0 mi Variable 4.6 mph - N/A   Mostly Cloudy
2:53 PM 78.1 °F 57.0 °F 48% 30.04 in 10.0 mi East 8.1 mph - N/A   Scattered Clouds
3:53 PM 78.1 °F 57.0 °F 48% 30.04 in 10.0 mi East 4.6 mph - N/A   Mostly Cloudy
4:53 PM 79.0 °F 57.0 °F 47% 30.03 in 10.0 mi ENE 5.8 mph - N/A   Overcast
5:53 PM 79.0 °F 57.9 °F 48% 30.03 in 10.0 mi ENE 3.5 mph - N/A   Clear
6:53 PM 71.1 °F 60.1 °F 68% 30.04 in 10.0 mi Calm Calm - N/A   Clear
7:53 PM 64.0 °F 60.1 °F 87% 30.06 in 10.0 mi Calm Calm - N/A   Scattered Clouds
8:53 PM 61.0 °F 57.9 °F 90% 30.05 in 10.0 mi Calm Calm - N/A   Clear
9:53 PM 60.1 °F 57.0 °F 90% 30.05 in 10.0 mi Calm Calm - N/A   Partly Cloudy
10:53 PM 59.0 °F 57.0 °F 93% 30.05 in 10.0 mi Calm Calm - N/A   Scattered Clouds
11:53 PM 57.9 °F 55.9 °F 93% 30.04 in 10.0 mi Calm Calm - N/A   Partly Cloudy